Vorticity
4 4 4 4 4 4 4 4 4 5 4 5 5 5 5 5 4 4 4 4 4 3 3 3 3 2 2 2 2 3 3 3 4 4 4 4 5 5 5 5 5 5 5 5 5 5 5 5 5 5 5 5 5 5 5 5 5 5 5 5 5 5 5 6 6 6 6 6 6 6 6 6 6 6 6 6 6 6 6 6 6 6 6 6 6 6
4 4 4 4 4 4 4 4 4 5 5 5 5 5 5 5 5 4 4 4 4 3 3 3 3 2 2 2 2 2 3 3 3 3 4 4 4 4 4 4 5 5 5 5 5 5 5 5 5 5 5 5 5 5 5 5 5 5 5 5 5 5 5 5 5 6 6 6 6 6 6 6 6 6 6 6 6 6 6 6 6 6 6 6 6 6
4 4 4 4 4 4 4 4 4 5 5 5 5 5 5 5 4 4 4 4 4 3 3 3 3 3 2 2 2 2 2 3 3 3 3 3 3 4 4 4 4 4 4 4 4 4 4 4 5 5 5 5 5 5 5 5 5 5 5 5 5 5 5 5 5 5 5 6 6 6 6 6 6 6 6 6 6 6 6 6 6 6 6 6 6 6
4 4 4 4 4 4 4 4 4 4 5 5 5 5 5 5 4 4 3 3 3 3 3 3 3 3 3 3 2 2 2 3 3 3 3 3 3 3 3 3 3 3 4 4 4 4 4 4 4 4 4 5 5 5 5 5 5 5 5 5 5 5 5 5 5 5 5 5 6 6 6 6 6 6 6 6 6 6 6 6 6 6 6 6 6 6
5 4 4 4 4 4 4 4 4 4 4 5 5 5 5 4 4 3 3 3 3 3 3 3 3 3 3 3 3 3 3 3 3 3 3 3 3 3 3 3 3 3 3 3 3 3 4 4 4 4 4 4 4 5 5 5 5 5 5 5 5 5 5 5 5 5 5 5 5 5 5 6 6 6 6 6 6 6 6 6 6 6 6 6 6 6
4 4 4 4 4 3 3 3 3 3 3 4 4 4 4 3 3 3 3 3 2 2 3 3 3 3 3 3 3 3 3 3 3 3 3 3 3 3 3 3 3 3 3 3 3 3 3 4 4 4 4 4 4 4 4 4 4 4 4 4 5 5 5 5 5 5 5 5 5 5 5 5 5 5 6 6 6 6 6 6 6 6 6 6 6 6
4 4 4 4 4 3 3 3 3 2 2 3 3 3 3 3 3 3 2 2 2 2 3 3 3 3 3 3 3 3 3 3 3 3 3 3 3 3 3 3 3 3 3 3 3 3 3 3 3 3 3 3 3 3 4 4 4 4 4 4 4 4 5 5 5 5 5 4 4 4 4 5 5 5 5 6 6 6 7 7 7 7 7 7 7 7
3 3 4 4 4 4 4 3 3 2 2 2 2 2 2 3 3 2 2 2 2 2 3 3 3 3 3 3 3 3 3 3 3 3 3 3 3 3 3 3 3 3 3 3 3 3 3 3 3 3 3 3 3 3 3 3 3 4 4 4 4 4 4 4 4 5 5 4 4 4 4 4 4 5 5 5 6 6 6 7 7 7 8 7 7 7
3 3 3 4 3 3 3 3 3 3 2 2 2 2 2 2 2 3 3 3 3 3 3 3 3 4 4 3 3 3 3 3 3 3 3 3 3 3 3 3 3 3 3 3 3 3 3 3 3 3 3 3 3 3 3 3 3 3 3 4 4 4 4 4 4 4 5 5 5 4 4 4 4 4 4 5 5 6 6 7 7 7 8 8 8 8
3 3 3 3 4 3 3 3 3 3 3 3 3 2 2 2 2 3 3 3 3 3 3 3 3 3 4 3 3 3 3 3 3 3 3 3 3 3 3 3 3 3 3 3 3 3 3 3 3 3 3 3 3 3 3 3 3 3 3 3 3 3 4 4 4 4 5 5 5 5 5 4 4 4 4 4 4 5 5 6 7 7 8 8 8 8
3 3 3 3 3 4 4 4 4 4 4 4 4 4 4 3 3 3 3 3 3 3 3 3 3 3 3 3 3 3 3 3 3 3 3 3 3 3 3 3 3 3 3 3 3 3 3 3 3 3 3 3 3 3 3 3 3 3 3 3 3 3 3 4 4 4 5 5 5 5 5 4 4 4 4 4 4 4 5 5 6 7 7 8 8 8
2 2 3 3 3 3 4 4 4 4 4 4 4 4 4 4 4 3 3 3 3 3 3 3 3 3 2 3 3 3 3 3 3 3 3 3 3 2 3 3 2 2 2 3 3 3 3 3 3 3 3 3 3 3 3 3 3 3 3 3 3 3 3 4 4 4 4 5 5 5 4 4 4 4 4 3 4 4 4 5 6 6 7 8 8 8
2 2 2 3 3 3 3 4 4 4 4 4 4 4 4 3 3 4 4 4 3 3 2 3 3 3 3 3 3 3 3 3 3 2 2 3 2 2 2 2 2 2 2 3 3 3 3 3 3 3 3 3 3 3 3 3 3 3 2 2 3 3 3 3 4 4 4 4 5 5 4 4 4 4 3 3 3 4 4 5 5 6 7 7 8 8
2 2 2 2 3 3 3 3 4 4 4 4 4 4 3 3 3 4 4 4 4 3 3 3 3 3 3 3 3 2 3 3 3 3 3 3 3 3 2 3 3 3 3 3 3 3 3 3 3 3 3 3 4 3 3 3 3 3 2 2 2 3 3 3 4 4 4 4 5 4 4 4 4 4 3 3 3 3 4 4 5 6 7 7 8 8
2 2 2 2 3 3 3 3 3 4 4 4 4 4 4 4 4 4 4 4 3 3 3 3 3 3 3 3 2 2 3 3 3 3 3 3 3 3 2 3 3 3 3 3 3 3 3 3 3 3 3 3 3 3 3 3 3 3 2 2 2 3 3 3 4 4 4 4 4 4 4 4 4 3 3 3 3 3 4 4 5 6 6 7 8 8
2 2 2 2 3 3 3 3 3 4 4 4 4 3 3 3 3 3 4 3 3 3 3 3 3 3 4 4 3 3 3 3 3 3 3 3 3 3 2 3 3 3 3 3 3 3 3 3 3 3 3 3 3 3 3 3 3 3 2 2 2 3 3 3 4 4 4 4 4 4 4 4 3 3 3 3 3 3 4 4 5 6 6 7 8 8
2 2 2 2 2 3 3 3 3 4 4 4 4 3 3 3 3 3 3 3 3 4 4 4 3 3 2 3 4 3 3 3 3 3 3 3 3 3 3 3 3 3 3 3 4 4 3 3 3 3 3 3 3 3 3 3 3 3 2 2 3 3 3 3 4 4 4 4 4 4 4 4 3 3 3 3 3 3 4 4 5 6 7 8 8 9
2 1 1 2 2 2 2 3 3 3 3 4 4 4 4 4 3 3 3 3 4 4 4 4 4 4 3 3 3 3 3 3 3 3 4 4 4 3 3 3 3 3 3 4 4 4 3 3 3 3 3 3 3 3 3 3 3 3 2 2 3 3 3 3 4 4 4 4 4 4 4 4 3 3 3 3 3 3 4 5 6 7 7 8 9 9
1 1 2 2 1 1 2 2 2 2 3 3 3 3 4 4 4 4 4 4 4 4 4 4 4 4 4 4 3 3 3 3 3 3 4 4 4 4 3 3 4 4 4 4 4 4 4 4 4 4 4 4 4 4 3 3 3 3 3 3 3 3 3 3 3 4 4 4 4 4 4 4 3 3 3 3 3 4 4 5 6 7 8 9 9 10
1 2 2 1 1 1 2 2 2 2 2 2 3 3 4 4 4 4 4 4 4 4 4 4 4 4 4 4 4 4 3 4 4 4 4 4 4 4 4 4 4 4 4 4 4 4 4 4 4 4 4 4 4 4 4 3 3 3 3 3 3 3 3 3 3 4 4 4 4 4 4 4 4 4 4 4 4 5 5 6 7 8 9 10 10 10
3 3 2 2 2 2 2 2 2 2 2 2 2 3 4 4 4 4 4 4 4 4 4 4 4 4 4 4 5 5 4 4 4 4 4 4 4 4 4 4 4 4 4 4 4 4 4 4 4 4 4 4 4 4 4 4 3 3 3 3 3 3 3 3 4 4 4 4 4 4 4 4 4 4 4 4 5 5 6 7 8 9 10 10 10 11
4 3 2 3 4 3 2 2 2 2 2 2 2 3 3 3 4 4 4 4 5 5 5 4 4 4 4 4 5 5 4 4 4 4 4 4 5 4 4 4 4 4 5 4 4 4 4 4 4 4 4 4 4 4 4 4 3 3 3 3 3 3 3 4 4 4 4 4 4 4 4 4 4 4 5 5 6 6 7 8 9 10 10 11 11 11
6 5 4 5 5 4 4 3 3 3 3 3 3 3 3 4 4 4 5 5 5 5 5 5 5 6 5 5 6 6 5 5 4 4 4 5 5 5 4 4 4 5 5 5 4 4 4 4 5 5 5 4 4 4 4 4 4 3 3 3 3 3 4 4 4 4 4 4 4 4 4 5 5 5 5 6 7 7 8 9 10 10 11 11 11 11
9 8 8 8 7 7 7 6 6 5 5 6 5 5 6 6 6 7 7 7 7 7 7 8 8 8 7 7 7 7 6 5 5 5 5 5 5 5 5 5 5 5 6 5 5 5 5 5 5 5 5 5 4 4 4 4 4 4 4 4 4 4 4 4 4 4 4 5 5 5 5 5 5 6 6 7 8 8 9 10 10 11 11 11 11 11
11 11 10 10 10 10 9 9 9 8 8 9 9 9 9 9 9 9 9 9 9 9 9 9 9 9 8 8 8 7 7 6 6 6 5 6 6 6 6 5 6 6 6 6 6 6 6 6 6 5 5 5 4 4 4 4 4 4 4 4 4 4 4 4 4 4 5 5 5 5 6 6 6 6 7 8 8 9 10 10 11 11 11 11 10 10
13 13 12 12 12 12 11 11 11 11 11 11 11 11 11 11 10 10 10 9 9 9 9 9 9 9 8 8 8 8 8 7 7 6 6 6 6 7 6 6 6 6 6 6 6 6 6 6 6 5 5 5 4 4 4 4 4 4 4 4 4 4 4 4 5 5 5 6 6 6 6 6 7 7 8 8 9 10 10 10 11 11 10 10 10 10
14 13 13 13 13 13 12 12 12 12 12 11 11 11 11 11 10 9 9 9 8 8 8 8 8 8 8 8 8 7 8 8 8 7 7 7 7 7 7 7 7 6 6 6 6 6 5 5 5 5 5 4 4 4 4 4 4 4 4 4 4 5 5 5 5 6 6 6 6 6 7 7 7 8 8 9 9 10 10 10 10 10 10 10 9 9
13 13 13 13 13 13 12 12 12 12 11 11 11 10 10 9 9 8 8 8 8 7 7 7 7 7 7 7 7 7 7 8 8 7 7 7 8 7 6 7 6 6 5 6 5 5 5 5 5 5 5 5 5 5 5 5 5 5 5 5 6 6 6 6 6 6 6 7 7 7 7 7 8 8 9 9 10 10 10 10 10 10 9 9 9 8
11 11 11 11 11 11 11 11 11 10 10 10 9 9 8 7 7 7 7 7 7 7 7 7 7 7 7 6 7 7 8 8 7 7 6 7 7 7 6 6 5 5 4 5 5 5 5 5 5 5 5 5 6 6 6 6 6 7 7 7 7 7 7 7 7 7 7 7 7 8 8 8 9 9 9 10 10 10 10 10 9 9 9 9 8 8
8 8 8 8 8 8 8 8 8 8 8 8 7 7 7 6 6 6 7 6 6 6 6 7 7 7 6 6 7 7 8 7 6 5 5 5 6 6 5 5 5 4 4 4 4 5 6 6 6 6 6 6 7 7 8 8 8 7 7 8 8 8 8 8 8 8 8 8 8 9 9 9 9 10 10 10 10 10 10 10 9 9 9 8 8 8
6 6 6 6 6 6 6 6 6 6 6 6 6 6 6 6 6 6 6 6 6 6 7 7 7 7 6 6 7 7 7 7 6 5 4 5 5 5 5 5 5 5 5 5 5 5 6 7 7 8 8 8 8 8 8 8 8 8 8 8 8 8 8 8 8 8 9 9 9 9 10 10 10 10 11 11 10 10 10 10 9 9 9 9 8 8
7 6 6 6 6 6 6 6 6 6 7 7 7 7 7 7 7 6 6 6 6 7 7 7 7 7 7 7 7 7 7 7 6 6 5 6 6 6 6 6 7 7 7 7 6 6 6 6 7 7 8 9 9 9 9 9 9 9 9 9 9 9 9 9 9 9 9 10 10 10 10 10 11 11 11 10 10 10 10 10 9 9 9 9 9 9
9 9 9 9 9 9 9 9 9 9 9 9 9 9 9 9 9 9 9 8 8 8 8 8 8 8 8 8 9 9 9 8 7 7 6 8 8 8 8 8 9 9 8 9 9 9 9 7 6 6 8 8 8 9 9 9 9 9 9 10 10 10 10 10 10 10 10 10 11 11 11 11 11 11 11 10 10 10 10 10 10 10 10 10 10 10
12 12 12 12 12 12 12 12 12 12 12 12 12 12 12 11 11 11 11 10 10 10 10 9 9 9 9 9 10 11 11 10 9 9 9 10 10 10 10 10 10 10 10 10 10 10 11 10 8 7 7 7 8 9 9 9 9 9 10 10 10 11 11 11 11 12 12 12 12 12 11 12 11 11 11 11 11 11 11 11 11 12 12 12 12 12
14 15 15 15 15 15 15 15 15 15 14 14 13 13 13 12 12 12 12 12 11 11 11 12 11 11 10 10 10 11 12 11 11 11 11 12 11 11 11 11 10 10 11 10 10 10 11 10 10 9 8 8 9 9 9 9 9 9 10 11 11 12 12 12 12 12 13 13 13 13 13 13 13 13 13 13 13 13 13 13 14 14 14 14 14 14
16 16 16 16 16 16 15 15 15 15 14 14 13 13 13 13 12 12 13 13 13 13 13 13 14 14 14 13 13 12 12 11 12 13 13 13 13 13 12 11 10 10 11 10 10 10 10 10 10 10 10 10 10 10 10 10 11 11 12 12 13 13 13 13 13 14 14 14 14 15 15 15 15 16 16 16 16 16 16 16 16 16 16 16 16 16
16 16 16 16 15 15 15 14 14 14 13 13 13 12 12 12 13 13 13 14 14 14 15 15 15 15 16 16 16 15 14 13 14 14 14 14 14 14 13 12 12 12 12 11 11 11 11 11 11 12 13 13 12 12 11 12 12 13 14 14 15 15 15 15 15 16 16 16 16 16 17 17 17 18 18 18 18 18 18 18 17 17 17 16 16 15
16 15 15 15 15 14 14 14 14 13 13 13 12 12 12 12 12 13 13 14 14 14 15 15 15 15 15 16 16 15 15 14 14 14 14 14 15 15 14 13 14 14 14 13 12 12 12 12 13 14 15 15 16 15 14 14 14 15 15 16 16 17 17 17 17 17 17 18 18 18 18 18 18 18 18 17 17 17 17 16 15 14 14 13 13 12
15 15 15 14 14 14 14 14 14 13 13 13 13 13 13 13 13 13 13 13 14 14 14 14 14 14 14 15 15 14 14 14 13 13 13 14 14 14 14 14 14 14 14 15 15 15 15 15 15 15 15 16 17 17 17 18 17 17 16 17 17 18 18 18 18 18 17 17 17 17 16 15 15 15 14 13 13 12 11 10 10 9 9 9 9 8
16 16 16 15 15 15 15 15 14 14 14 14 14 14 15 15 15 15 15 15 15 15 15 15 15 15 15 15 15 15 15 14 14 14 14 14 15 15 15 15 15 15 15 15 16 16 17 18 18 18 18 18 17 17 17 18 18 18 18 17 16 16 15 15 15 15 15 14 14 13 12 10 9 9 8 8 7 6 5 5 5 5 4 5 5 6
18 18 18 17 17 17 17 16 16 16 15 15 15 16 16 16 16 16 16 16 16 16 16 16 17 17 17 17 17 16 16 16 16 16 16 16 16 16 17 17 17 17 17 17 17 18 19 19 19 19 18 18 18 17 17 16 15 15 15 14 13 11 10 9 9 9 9 9 8 7 7 6 5 4 4 4 4 3 3 4 4 4 5 5 6 6
19 19 18 18 18 18 17 17 17 17 16 16 16 17 17 17 17 17 16 16 17 17 17 17 17 16 17 17 17 17 17 17 17 17 17 17 17 17 18 18 18 18 18 17 17 17 17 17 17 17 15 14 14 14 13 11 10 9 9 8 8 6 5 3 3 3 5 4 4 4 4 5 4 4 3 3 4 5 6 6 7 8 8 9 10 10
17 17 17 17 16 16 17 17 17 16 16 17 17 17 17 17 17 17 16 16 16 16 16 16 15 15 15 15 15 14 15 16 16 16 16 16 15 16 16 16 15 15 15 15 15 14 12 11 11 12 11 9 9 8 7 6 5 4 3 3 3 3 3 1 1 1 4 4 4 5 6 6 6 6 6 7 8 9 11 11 12 13 13 13 14 14
12 12 13 13 13 13 14 14 14 14 14 14 14 14 14 14 14 15 15 15 14 14 14 13 13 13 13 13 12 12 11 12 12 12 12 11 11 10 10 10 9 9 8 9 9 8 7 6 5 5 5 5 5 4 4 3 3 2 2 2 2 3 4 3 3 3 5 6 7 9 10 10 10 10 11 12 13 15 15 15 16 16 17 17 16 16
5 5 5 6 6 7 7 8 9 9 9 10 9 9 9 9 9 10 10 10 10 9 9 9 9 9 9 8 8 8 8 7 7 6 7 7 6 5 4 4 4 4 3 4 4 4 4 4 3 3 3 4 4 5 5 5 5 5 5 5 6 7 8 8 9 9 9 10 11 11 12 12 12 13 14 15 16 16 16 16 16 16 15 15 15 15
0 0 0 0 1 1 2 2 3 3 4 4 4 4 4 4 4 4 5 5 5 5 5 4 4 5 6 5 5 5 5 5 4 4 4 5 4 3 2 3 3 3 2 3 4 4 4 4 4 4 4 5 7 8 8 9 9 9 9 9 10 11 12 13 14 14 14 14 13 13 12 12 13 13 14 14 14 14 14 13 14 13 13 12 11 11
1 1 1 1 1 1 1 1 1 2 3 3 3 2 2 2 2 3 3 3 3 3 3 3 3 4 5 5 4 4 4 5 5 5 4 5 6 6 6 6 5 5 5 5 6 7 8 8 8 8 8 8 9 10 11 12 13 13 13 13 13 14 14 15 15 15 15 15 14 13 13 12 12 12 13 13 12 11 11 10 10 10 9 8 8 7
4 4 4 4 4 4 4 4 4 4 5 5 4 4 4 4 4 5 5 4 4 4 5 4 4 5 5 6 6 5 5 6 6 6 6 7 8 9 10 11 11 11 11 11 11 11 12 12 12 13 13 12 12 12 12 13 14 15 15 15 15 15 15 15 14 14 13 13 13 12 11 11 10 10 10 9 9 8 7 7 7 6 6 6 5 5
8 8 7 7 7 6 6 6 6 6 7 7 7 7 7 7 7 7 7 6 6 6 7 6 6 7 7 8 8 8 9 9 9 9 9 9 10 11 12 13 13 14 14 15 15 15 16 16 16 15 15 15 16 15 14 13 13 13 14 14 14 13 13 13 12 10 9 9 9 8 8 8 8 8 8 8 7 6 6 5 5 5 5 5 5 5
10 10 9 9 9 9 8 8 8 8 8 8 8 8 7 8 9 9 9 9 9 9 9 9 9 9 10 9 10 10 11 11 11 11 12 12 12 12 13 13 13 14 15 15 15 16 16 16 17 16 15 15 16 16 15 13 11 11 11 11 11 10 10 9 8 7 6 6 6 5 5 5 6 6 6 7 7 7 6 5 5 5 5 6 6 7
11 11 11 11 11 11 11 10 10 10 10 10 10 9 8 9 9 10 11 11 12 12 12 13 13 13 12 12 12 13 13 13 13 13 13 13 13 13 13 13 13 13 13 14 14 13 13 13 14 13 12 12 12 12 14 12 10 9 8 8 8 7 7 7 7 6 5 5 5 5 5 6 6 6 6 7 8 8 8 8 8 8 8 8 9 10
Height
5668 5669 5671 5672 5674 5674 5675 5676 5677 5678 5679 5680 5681 5682 5682 5683 5684 5685 5686 5687 5687 5688 5689 5689 5690 5690 5690 5691 5691 5692 5692 5692 5693 5693 5693 5694 5694 5694 5694 5695 5695 5695 5695 5695 5695 5695 5695 5695 5695 5695 5695 5695 5695 5695 5695 5695 5695 5695 5695 5695 5695 5694 5694 5694 5694 5694 5693 5693 5693 5693 5693 5693 5692 5692 5692 5692 5692 5692 5691 5691 5691 5691 5690 5690 5690 5689
5664 5665 5666 5668 5669 5670 5670 5672 5673 5675 5675 5675 5677 5678 5679 5679 5680 5681 5682 5683 5683 5684 5685 5685 5685 5686 5686 5687 5687 5688 5688 5689 5689 5689 5690 5690 5690 5690 5690 5690 5691 5691 5691 5691 5691 5691 5691 5691 5692 5692 5692 5692 5692 5692 5692 5691 5691 5691 5691 5690 5690 5690 5690 5690 5690 5690 5690 5689 5689 5689 5689 5689 5688 5688 5688 5688 5688 5687 5687 5687 5687 5687 5686 5686 5686 5685
5660 5661 5662 5663 5664 5665 5666 5667 5669 5670 5671 5671 5672 5673 5674 5675 5675 5676 5677 5678 5679 5680 5680 5681 5681 5682 5682 5683 5683 5684 5684 5685 5685 5685 5686 5686 5686 5686 5686 5687 5687 5687 5687 5687 5687 5688 5688 5688 5688 5688 5688 5688 5688 5688 5688 5687 5687 5687 5687 5687 5686 5686 5686 5686 5686 5686 5685 5685 5685 5685 5685 5685 5684 5684 5684 5684 5684 5683 5683 5683 5683 5682 5682 5682 5681 5681
5656 5657 5657 5658 5660 5661 5662 5663 5665 5666 5667 5667 5668 5669 5670 5670 5671 5672 5673 5674 5675 5675 5676 5676 5677 5678 5678 5679 5680 5680 5680 5681 5681 5681 5682 5682 5682 5682 5683 5683 5683 5683 5683 5683 5684 5684 5684 5684 5684 5684 5684 5684 5684 5684 5684 5683 5683 5683 5683 5682 5682 5682 5682 5682 5682 5682 5681 5681 5681 5681 5680 5680 5680 5680 5680 5680 5680 5679 5679 5679 5678 5678 5678 5678 5677 5677
5651 5652 5652 5654 5656 5657 5657 5659 5660 5661 5662 5663 5664 5665 5665 5666 5666 5668 5669 5670 5671 5671 5671 5672 5672 5673 5674 5675 5675 5676 5676 5676 5677 5677 5678 5678 5678 5678 5679 5679 5679 5679 5679 5679 5679 5680 5680 5680 5680 5680 5680 5680 5680 5680 5680 5679 5679 5679 5679 5678 5678 5678 5678 5678 5678 5678 5677 5677 5677 5677 5676 5676 5676 5676 5676 5675 5675 5675 5675 5675 5674 5674 5674 5673 5673 5673
5646 5648 5648 5650 5651 5652 5652 5654 5656 5657 5658 5659 5659 5660 5660 5661 5662 5663 5665 5665 5666 5667 5667 5667 5668 5668 5669 5670 5671 5671 5672 5672 5673 5673 5673 5674 5674 5674 5674 5674 5675 5675 5675 5675 5675 5675 5675 5676 5676 5676 5676 5676 5675 5675 5675 5675 5675 5675 5675 5674 5674 5674 5674 5674 5674 5674 5673 5673 5673 5673 5672 5672 5672 5672 5671 5671 5671 5671 5670 5670 5670 5670 5669 5669 5669 5668
5641 5643 5644 5645 5646 5647 5648 5650 5651 5652 5654 5655 5655 5655 5655 5656 5657 5659 5660 5661 5661 5662 5662 5662 5663 5664 5665 5665 5666 5667 5668 5668 5668 5669 5669 5669 5670 5670 5670 5670 5670 5670 5670 5671 5671 5671 5671 5671 5671 5671 5671 5671 5671 5671 5671 5671 5670 5670 5670 5670 5670 5670 5670 5670 5670 5669 5669 5669 5669 5668 5668 5668 5668 5667 5667 5667 5667 5666 5666 5666 5665 5665 5665 5664 5664 5664
5637 5638 5639 5641 5642 5643 5644 5645 5647 5648 5650 5650 5651 5651 5651 5651 5652 5654 5655 5656 5657 5657 5658 5658 5658 5659 5660 5661 5662 5662 5663 5663 5664 5664 5664 5665 5665 5665 5665 5666 5666 5666 5666 5666 5667 5667 5667 5667 5667 5667 5667 5667 5667 5667 5666 5666 5666 5666 5666 5666 5666 5666 5665 5665 5665 5665 5665 5664 5664 5664 5664 5664 5663 5663 5663 5662 5662 5662 5661 5661 5661 5660 5660 5660 5660 5659
5631 5633 5634 5636 5637 5638 5640 5641 5642 5644 5645 5646 5646 5646 5646 5647 5648 5649 5650 5651 5652 5652 5653 5653 5654 5654 5655 5656 5657 5658 5658 5659 5659 5659 5660 5660 5660 5660 5661 5661 5662 5662 5662 5662 5662 5662 5662 5662 5662 5662 5662 5662 5662 5662 5662 5662 5662 5661 5661 5661 5661 5661 5661 5661 5660 5660 5660 5660 5660 5660 5659 5659 5659 5659 5658 5658 5658 5657 5657 5657 5656 5656 5655 5655 5655 5655
5626 5627 5629 5631 5632 5634 5635 5636 5637 5639 5641 5642 5642 5641 5641 5642 5643 5644 5645 5646 5647 5647 5649 5649 5649 5649 5650 5651 5652 5653 5653 5654 5654 5655 5655 5655 5655 5656 5656 5657 5657 5657 5657 5657 5657 5657 5657 5657 5657 5657 5657 5658 5658 5657 5657 5657 5657 5657 5657 5657 5656 5656 5656 5656 5656 5655 5655 5655 5655 5655 5655 5654 5654 5654 5653 5653 5653 5652 5652 5652 5651 5651 5651 5650 5650 5650
5620 5622 5624 5625 5627 5629 5630 5631 5632 5634 5637 5637 5637 5637 5637 5637 5638 5639 5640 5641 5642 5643 5644 5644 5645 5645 5645 5646 5647 5648 5649 5649 5649 5650 5650 5650 5651 5651 5651 5652 5652 5653 5653 5652 5652 5652 5652 5652 5652 5652 5653 5653 5653 5653 5652 5652 5652 5652 5652 5652 5652 5651 5651 5651 5651 5651 5650 5650 5650 5650 5650 5649 5649 5649 5648 5648 5648 5648 5647 5647 5646 5646 5646 5645 5645 5645
5615 5617 5619 5620 5621 5623 5625 5626 5627 5629 5632 5633 5632 5632 5632 5632 5633 5635 5635 5635 5636 5638 5639 5640 5640 5640 5640 5641 5641 5643 5644 5644 5644 5644 5645 5645 5646 5646 5647 5647 5648 5648 5648 5647 5647 5647 5647 5648 5648 5648 5648 5648 5648 5647 5647 5647 5647 5647 5647 5647 5647 5646 5646 5646 5646 5645 5645 5645 5645 5645 5645 5644 5644 5644 5643 5643 5643 5642 5642 5642 5641 5641 5641 5640 5640 5640
5610 5612 5614 5615 5616 5617 5619 5621 5623 5624 5626 5627 5627 5627 5627 5628 5629 5630 5631 5630 5631 5633 5634 5635 5635 5635 5635 5636 5637 5637 5638 5639 5639 5639 5640 5640 5640 5641 5642 5642 5643 5643 5642 5642 5642 5642 5642 5643 5643 5643 5642 5643 5642 5642 5642 5642 5642 5642 5641 5641 5641 5641 5641 5641 5641 5640 5640 5640 5640 5640 5639 5639 5639 5638 5638 5638 5638 5637 5637 5637 5636 5636 5636 5635 5635 5635
5605 5607 5609 5610 5610 5612 5614 5615 5617 5619 5620 5621 5622 5622 5623 5623 5624 5625 5625 5625 5626 5627 5629 5630 5630 5630 5630 5631 5632 5633 5633 5634 5634 5634 5635 5635 5635 5636 5637 5637 5637 5637 5637 5638 5637 5637 5637 5637 5637 5637 5637 5637 5637 5637 5637 5637 5636 5636 5636 5636 5636 5636 5636 5636 5635 5635 5635 5635 5635 5634 5634 5634 5633 5633 5633 5633 5632 5632 5632 5631 5631 5631 5630 5630 5630 5629
5600 5602 5603 5604 5605 5606 5608 5610 5612 5613 5614 5615 5616 5617 5618 5618 5619 5620 5620 5620 5620 5622 5624 5625 5625 5625 5625 5626 5627 5628 5628 5628 5629 5629 5630 5630 5630 5631 5632 5633 5632 5632 5632 5633 5632 5631 5631 5632 5632 5632 5631 5632 5632 5632 5631 5631 5631 5631 5631 5631 5631 5631 5630 5630 5630 5630 5630 5629 5629 5629 5629 5628 5628 5628 5628 5627 5627 5627 5626 5626 5626 5625 5625 5625 5624 5624
5595 5597 5598 5598 5599 5600 5603 5605 5606 5607 5608 5609 5611 5612 5613 5613 5613 5614 5615 5615 5615 5617 5619 5619 5619 5619 5620 5621 5622 5623 5624 5623 5623 5624 5625 5625 5625 5626 5628 5628 5627 5626 5626 5627 5627 5626 5626 5627 5627 5626 5626 5627 5627 5627 5626 5626 5626 5626 5626 5626 5625 5625 5625 5625 5625 5624 5624 5624 5624 5624 5623 5623 5623 5622 5622 5622 5622 5621 5621 5621 5620 5620 5620 5619 5619 5618
5589 5591 5592 5593 5594 5595 5598 5600 5601 5602 5602 5604 5605 5606 5607 5607 5608 5609 5610 5610 5610 5611 5613 5614 5614 5614 5615 5616 5617 5618 5619 5619 5618 5618 5619 5620 5620 5620 5622 5623 5622 5620 5620 5621 5621 5621 5620 5621 5621 5621 5621 5621 5621 5621 5621 5621 5620 5620 5620 5620 5620 5620 5620 5619 5619 5619 5619 5618 5618 5618 5618 5617 5617 5617 5617 5616 5616 5616 5615 5615 5615 5615 5614 5614 5613 5613
5584 5585 5586 5587 5589 5590 5592 5594 5595 5596 5597 5598 5599 5600 5601 5601 5602 5603 5604 5605 5605 5606 5607 5608 5609 5609 5610 5610 5611 5612 5614 5615 5613 5612 5613 5614 5614 5614 5616 5618 5617 5615 5615 5615 5616 5615 5615 5615 5615 5616 5616 5616 5616 5616 5615 5615 5615 5615 5615 5615 5615 5614 5614 5614 5613 5613 5613 5613 5613 5612 5612 5612 5612 5611 5611 5611 5610 5610 5610 5610 5609 5609 5608 5608 5607 5607
5578 5579 5581 5582 5583 5585 5587 5589 5590 5590 5591 5593 5593 5594 5595 5596 5597 5598 5599 5599 5600 5600 5601 5602 5603 5604 5605 5605 5605 5605 5608 5610 5608 5606 5607 5608 5608 5609 5610 5612 5612 5610 5610 5610 5610 5610 5610 5610 5610 5610 5611 5611 5610 5610 5610 5610 5610 5610 5610 5609 5609 5609 5608 5608 5608 5607 5607 5607 5607 5607 5606 5606 5606 5606 5605 5605 5605 5605 5604 5604 5603 5603 5602 5602 5601 5601
5572 5574 5576 5577 5578 5579 5581 5583 5584 5585 5586 5587 5588 5589 5590 5590 5591 5592 5593 5593 5594 5595 5595 5596 5597 5597 5599 5600 5600 5600 5602 5604 5603 5602 5601 5602 5603 5603 5604 5606 5606 5605 5604 5604 5604 5604 5604 5604 5604 5605 5605 5605 5605 5604 5604 5604 5604 5604 5604 5604 5603 5603 5602 5602 5602 5602 5601 5601 5601 5601 5600 5600 5600 5600 5600 5599 5599 5599 5598 5598 5597 5597 5596 5596 5595 5595
5567 5568 5570 5571 5573 5575 5575 5576 5577 5579 5581 5581 5582 5583 5584 5584 5585 5587 5587 5588 5588 5589 5590 5591 5591 5591 5593 5595 5595 5594 5595 5598 5598 5596 5595 5596 5597 5598 5598 5600 5600 5600 5598 5597 5598 5598 5599 5599 5598 5599 5600 5600 5599 5599 5598 5598 5598 5598 5598 5598 5597 5597 5597 5596 5596 5595 5595 5595 5595 5595 5595 5594 5594 5594 5594 5593 5593 5593 5592 5592 5591 5591 5590 5590 5589 5589
5562 5563 5563 5565 5568 5569 5569 5570 5571 5574 5575 5576 5577 5577 5577 5578 5580 5581 5581 5582 5583 5584 5584 5585 5585 5585 5587 5589 5588 5588 5589 5591 5592 5591 5590 5590 5591 5591 5592 5594 5595 5594 5592 5591 5591 5592 5593 5593 5592 5593 5594 5594 5593 5593 5592 5592 5592 5592 5592 5592 5591 5591 5590 5590 5590 5590 5589 5589 5589 5589 5589 5588 5588 5588 5587 5587 5587 5587 5586 5586 5585 5585 5584 5584 5583 5583
5556 5556 5557 5559 5562 5563 5563 5564 5566 5568 5569 5570 5571 5571 5571 5573 5575 5575 5575 5576 5577 5578 5578 5579 5579 5580 5581 5582 5582 5581 5583 5585 5585 5585 5585 5585 5585 5584 5585 5588 5590 5589 5586 5585 5585 5587 5587 5587 5586 5587 5588 5588 5587 5586 5586 5586 5586 5586 5585 5585 5585 5585 5584 5584 5584 5583 5583 5583 5583 5582 5582 5582 5582 5581 5581 5581 5581 5580 5580 5580 5579 5579 5578 5577 5577 5576
5549 5550 5551 5553 5555 5556 5557 5558 5560 5561 5563 5564 5565 5565 5566 5567 5569 5569 5569 5570 5571 5572 5572 5572 5574 5575 5575 5575 5575 5576 5576 5578 5579 5580 5580 5580 5579 5578 5580 5582 5584 5583 5580 5578 5580 5581 5581 5580 5580 5580 5581 5582 5581 5580 5580 5580 5580 5579 5579 5579 5579 5578 5578 5577 5577 5577 5577 5576 5576 5576 5576 5575 5575 5575 5575 5575 5575 5574 5574 5573 5573 5572 5572 5571 5571 5570
5543 5544 5545 5547 5549 5550 5551 5553 5554 5555 5556 5558 5559 5560 5560 5561 5562 5563 5563 5564 5565 5565 5566 5567 5568 5568 5568 5569 5570 5571 5570 5570 5573 5575 5575 5574 5573 5573 5574 5576 5577 5577 5575 5573 5573 5575 5576 5574 5573 5573 5575 5575 5574 5573 5573 5573 5573 5573 5572 5572 5572 5571 5571 5570 5570 5570 5570 5570 5570 5570 5569 5569 5569 5569 5568 5568 5568 5567 5567 5566 5566 5565 5565 5565 5564 5564
5537 5538 5539 5540 5542 5544 5545 5546 5547 5548 5550 5551 5553 5554 5555 5555 5556 5557 5558 5558 5558 5559 5560 5561 5561 5561 5561 5563 5565 5565 5564 5564 5566 5569 5569 5568 5567 5567 5567 5568 5570 5571 5570 5567 5567 5569 5570 5568 5566 5566 5567 5568 5567 5567 5566 5566 5566 5565 5565 5565 5565 5564 5564 5564 5564 5564 5563 5563 5563 5563 5562 5562 5562 5562 5562 5561 5561 5561 5560 5560 5559 5559 5559 5558 5558 5557
5530 5532 5533 5534 5536 5538 5539 5540 5541 5542 5544 5545 5547 5548 5548 5549 5550 5551 5551 5551 5551 5553 5555 5555 5555 5554 5555 5557 5559 5558 5557 5558 5560 5561 5561 5562 5562 5562 5560 5561 5564 5566 5565 5562 5561 5562 5564 5563 5560 5559 5560 5561 5560 5560 5560 5560 5559 5559 5558 5558 5557 5557 5557 5557 5557 5557 5556 5556 5556 5555 5555 5555 5555 5555 5555 5555 5554 5554 5553 5553 5552 5552 5552 5551 5551 5550
5524 5525 5526 5528 5530 5531 5533 5533 5534 5535 5537 5539 5540 5541 5542 5543 5545 5545 5545 5543 5545 5548 5550 5549 5548 5548 5549 5551 5551 5551 5551 5553 5554 5554 5554 5556 5558 5556 5553 5553 5557 5560 5559 5557 5555 5556 5557 5556 5555 5553 5553 5553 5553 5553 5552 5552 5552 5551 5551 5550 5550 5550 5550 5550 5550 5550 5549 5549 5549 5549 5549 5548 5548 5548 5548 5548 5547 5547 5546 5546 5545 5545 5545 5545 5544 5544
5517 5519 5520 5522 5524 5525 5526 5527 5528 5529 5531 5532 5534 5535 5536 5537 5539 5539 5537 5537 5540 5543 5544 5542 5540 5541 5543 5544 5545 5545 5546 5547 5546 5546 5548 5552 5552 5549 5545 5547 5551 5553 5552 5551 5550 5550 5550 5549 5548 5547 5547 5546 5546 5545 5545 5545 5545 5544 5544 5543 5543 5543 5542 5542 5542 5542 5542 5542 5542 5541 5541 5541 5541 5541 5541 5540 5540 5540 5539 5539 5538 5538 5538 5538 5537 5537
5511 5513 5514 5516 5517 5519 5520 5521 5522 5523 5525 5526 5528 5529 5529 5531 5532 5533 5531 5531 5534 5537 5537 5535 5534 5535 5537 5537 5538 5538 5539 5539 5538 5539 5543 5546 5545 5541 5538 5541 5545 5545 5544 5544 5545 5546 5544 5542 5541 5542 5542 5540 5539 5538 5538 5538 5537 5537 5537 5536 5536 5535 5535 5535 5535 5535 5535 5535 5534 5534 5534 5534 5534 5534 5533 5533 5533 5532 5531 5531 5531 5530 5530 5530 5530 5530
5505 5507 5509 5510 5511 5512 5514 5515 5516 5517 5518 5520 5521 5522 5523 5524 5525 5526 5526 5526 5528 5530 5530 5529 5529 5529 5530 5531 5531 5531 5531 5530 5531 5534 5538 5540 5538 5534 5532 5535 5538 5537 5535 5537 5540 5540 5538 5535 5535 5535 5536 5535 5532 5530 5530 5530 5530 5530 5529 5529 5529 5528 5528 5528 5528 5528 5528 5527 5527 5527 5527 5527 5526 5526 5526 5525 5525 5525 5524 5524 5523 5523 5523 5523 5523 5522
5499 5501 5503 5504 5505 5506 5508 5509 5510 5511 5512 5514 5515 5515 5516 5517 5519 5520 5520 5520 5521 5522 5523 5523 5523 5523 5523 5524 5525 5525 5524 5523 5524 5527 5531 5533 5531 5527 5525 5529 5531 5530 5527 5529 5533 5534 5532 5530 5529 5530 5530 5529 5527 5524 5522 5522 5523 5523 5522 5522 5521 5521 5520 5520 5521 5521 5521 5520 5520 5520 5520 5520 5519 5519 5519 5518 5518 5517 5517 5516 5515 5515 5515 5515 5515 5515
5494 5495 5497 5498 5499 5500 5502 5503 5504 5505 5506 5507 5508 5509 5510 5511 5512 5513 5514 5514 5515 5515 5516 5517 5517 5516 5516 5517 5518 5518 5517 5516 5517 5520 5523 5526 5525 5522 5520 5521 5523 5523 5521 5521 5524 5526 5526 5525 5524 5524 5524 5523 5521 5519 5517 5516 5515 5515 5515 5515 5515 5513 5512 5512 5513 5514 5513 5512 5512 5513 5513 5512 5512 5512 5511 5511 5510 5510 5509 5509 5508 5508 5507 5508 5508 5508
5488 5490 5490 5491 5493 5494 5495 5496 5497 5499 5500 5501 5502 5502 5503 5504 5505 5506 5507 5508 5508 5509 5510 5510 5510 5510 5510 5510 5511 5511 5510 5510 5510 5513 5515 5518 5518 5516 5514 5514 5516 5516 5515 5515 5516 5517 5518 5518 5518 5518 5519 5518 5516 5514 5512 5510 5509 5508 5507 5507 5507 5506 5505 5504 5505 5506 5506 5505 5505 5505 5505 5505 5504 5504 5504 5503 5503 5502 5502 5501 5500 5500 5500 5500 5500 5500
5482 5484 5485 5485 5487 5488 5489 5490 5491 5492 5493 5494 5495 5496 5497 5498 5499 5500 5500 5501 5502 5502 5503 5503 5504 5504 5504 5504 5505 5505 5504 5503 5504 5506 5509 5511 5511 5509 5508 5508 5509 5508 5508 5509 5509 5509 5510 5511 5511 5511 5512 5512 5511 5508 5506 5505 5504 5503 5501 5500 5500 5500 5499 5497 5497 5498 5498 5498 5497 5497 5497 5497 5497 5496 5496 5495 5495 5495 5494 5494 5493 5492 5491 5491 5491 5492
5477 5478 5478 5479 5481 5482 5483 5484 5485 5486 5487 5488 5489 5490 5491 5492 5493 5494 5495 5495 5496 5496 5497 5497 5497 5497 5498 5498 5498 5498 5498 5497 5497 5499 5502 5503 5503 5502 5502 5502 5501 5501 5502 5503 5503 5502 5502 5504 5504 5505 5505 5506 5505 5503 5500 5498 5498 5498 5496 5494 5492 5492 5492 5491 5490 5490 5490 5490 5490 5490 5489 5490 5489 5489 5488 5488 5488 5487 5487 5486 5485 5484 5484 5483 5483 5483
5471 5471 5472 5473 5475 5476 5477 5478 5479 5480 5481 5482 5483 5484 5485 5486 5487 5488 5489 5490 5490 5490 5491 5491 5491 5491 5491 5492 5492 5492 5491 5491 5491 5493 5495 5495 5495 5495 5496 5496 5495 5494 5495 5497 5496 5495 5495 5497 5498 5498 5497 5498 5499 5498 5495 5493 5492 5491 5490 5488 5486 5485 5485 5484 5483 5482 5483 5484 5483 5482 5482 5482 5482 5482 5481 5480 5480 5480 5480 5479 5477 5476 5476 5476 5475 5475
5465 5465 5466 5467 5469 5470 5471 5472 5473 5474 5475 5476 5477 5478 5480 5481 5482 5483 5483 5484 5484 5485 5485 5485 5485 5485 5485 5485 5486 5485 5485 5485 5485 5486 5487 5487 5488 5489 5490 5490 5488 5487 5488 5490 5490 5489 5489 5490 5491 5491 5491 5491 5491 5491 5490 5488 5487 5486 5484 5481 5480 5480 5479 5477 5476 5475 5476 5476 5476 5475 5475 5475 5475 5475 5475 5474 5473 5473 5472 5471 5470 5469 5469 5469 5468 5467
5458 5459 5460 5461 5463 5464 5465 5466 5467 5468 5469 5470 5472 5473 5474 5475 5476 5477 5478 5478 5478 5479 5479 5479 5479 5479 5479 5479 5479 5479 5479 5479 5480 5480 5480 5481 5481 5482 5483 5483 5482 5481 5481 5482 5483 5483 5483 5483 5484 5484 5484 5484 5484 5484 5483 5482 5482 5480 5478 5476 5475 5474 5472 5470 5470 5470 5470 5469 5469 5469 5469 5468 5468 5468 5468 5467 5466 5466 5465 5465 5463 5462 5461 5461 5461 5460
5452 5454 5455 5456 5457 5458 5460 5460 5461 5462 5464 5465 5466 5467 5468 5469 5470 5471 5471 5472 5472 5473 5473 5473 5473 5473 5473 5473 5473 5473 5473 5473 5474 5474 5474 5475 5475 5475 5475 5476 5476 5475 5475 5475 5476 5477 5477 5477 5477 5477 5477 5477 5478 5478 5477 5477 5475 5474 5472 5472 5471 5469 5466 5464 5464 5464 5463 5461 5461 5462 5462 5461 5461 5461 5461 5461 5460 5459 5459 5458 5456 5455 5454 5454 5454 5453
5447 5449 5450 5450 5451 5452 5454 5455 5456 5457 5458 5460 5461 5462 5462 5463 5464 5465 5465 5466 5466 5467 5467 5467 5467 5468 5467 5467 5467 5467 5467 5467 5468 5468 5468 5468 5468 5468 5469 5469 5469 5469 5469 5469 5470 5470 5470 5470 5470 5470 5470 5470 5471 5472 5472 5471 5469 5467 5466 5466 5465 5464 5461 5460 5460 5458 5456 5454 5454 5454 5454 5455 5455 5454 5454 5454 5454 5453 5452 5451 5450 5449 5447 5446 5445 5445
5443 5444 5445 5445 5446 5448 5449 5450 5451 5452 5454 5455 5456 5456 5457 5457 5458 5459 5460 5460 5460 5461 5461 5461 5462 5462 5462 5461 5460 5460 5461 5462 5462 5462 5462 5462 5462 5462 5462 5462 5462 5463 5463 5464 5464 5464 5463 5464 5464 5464 5463 5463 5464 5465 5467 5465 5463 5461 5460 5460 5459 5458 5457 5457 5455 5452 5450 5449 5447 5445 5445 5447 5447 5447 5447 5447 5447 5446 5445 5444 5443 5442 5440 5439 5437 5436
5438 5439 5439 5440 5442 5443 5444 5445 5446 5447 5449 5450 5450 5451 5451 5452 5453 5454 5455 5455 5455 5455 5455 5456 5456 5457 5457 5456 5455 5455 5455 5456 5456 5456 5456 5456 5456 5456 5456 5456 5456 5456 5457 5458 5459 5458 5457 5456 5457 5458 5457 5456 5457 5459 5460 5459 5457 5455 5454 5453 5452 5452 5453 5452 5449 5445 5444 5443 5441 5438 5437 5438 5439 5440 5440 5440 5440 5439 5438 5436 5435 5434 5432 5431 5430 5429
5432 5434 5435 5436 5437 5438 5439 5440 5441 5442 5443 5444 5445 5446 5446 5446 5447 5449 5449 5450 5450 5450 5450 5450 5451 5451 5451 5451 5450 5449 5449 5450 5450 5450 5450 5450 5450 5450 5450 5450 5450 5450 5451 5452 5452 5452 5451 5451 5451 5450 5450 5450 5451 5452 5453 5451 5450 5449 5448 5446 5445 5445 5446 5445 5443 5440 5439 5438 5435 5432 5430 5430 5431 5432 5432 5433 5433 5432 5431 5430 5428 5426 5424 5423 5422 5421
5428 5429 5430 5432 5433 5434 5435 5436 5436 5437 5438 5439 5440 5441 5441 5441 5442 5443 5444 5444 5444 5444 5445 5445 5446 5446 5446 5446 5445 5444 5444 5445 5445 5444 5444 5444 5444 5444 5444 5444 5444 5444 5445 5445 5445 5445 5445 5445 5445 5444 5442 5443 5445 5445 5445 5443 5442 5442 5441 5440 5439 5438 5439 5438 5435 5434 5433 5431 5428 5425 5423 5423 5424 5425 5425 5425 5425 5425 5424 5423 5421 5420 5417 5415 5414 5413
5423 5425 5426 5427 5428 5429 5430 5431 5431 5432 5433 5435 5435 5435 5436 5436 5437 5438 5439 5439 5439 5439 5440 5440 5440 5441 5441 5440 5439 5439 5440 5440 5439 5438 5437 5438 5438 5438 5438 5438 5438 5438 5438 5438 5438 5438 5439 5439 5439 5438 5437 5437 5438 5438 5437 5435 5435 5435 5435 5433 5432 5432 5432 5430 5428 5426 5425 5424 5422 5419 5416 5415 5416 5418 5419 5418 5417 5417 5417 5416 5415 5413 5411 5409 5407 5405
5419 5420 5421 5422 5424 5425 5425 5426 5426 5428 5429 5430 5430 5430 5431 5431 5432 5433 5433 5433 5434 5434 5435 5435 5435 5436 5436 5435 5434 5434 5435 5435 5434 5432 5431 5431 5432 5432 5431 5431 5432 5432 5432 5432 5431 5431 5431 5432 5431 5431 5431 5431 5431 5430 5429 5428 5428 5428 5427 5425 5425 5425 5425 5424 5421 5418 5417 5416 5415 5412 5410 5409 5410 5411 5411 5410 5410 5410 5411 5410 5408 5405 5404 5402 5400 5398
5414 5415 5416 5417 5419 5420 5421 5421 5422 5423 5424 5424 5425 5425 5425 5426 5427 5428 5428 5428 5428 5429 5430 5430 5430 5430 5430 5429 5429 5429 5429 5429 5428 5427 5426 5425 5425 5425 5425 5425 5425 5425 5425 5425 5425 5425 5425 5424 5424 5424 5424 5424 5424 5423 5422 5420 5420 5420 5420 5418 5417 5417 5417 5416 5414 5411 5410 5409 5407 5405 5403 5403 5403 5403 5402 5401 5402 5403 5403 5402 5401 5399 5397 5394 5393 5391
5409 5410 5411 5413 5414 5415 5416 5416 5417 5418 5419 5419 5419 5420 5420 5421 5421 5422 5422 5422 5423 5424 5424 5425 5424 5424 5424 5424 5423 5423 5424 5424 5423 5422 5420 5420 5420 5419 5419 5418 5418 5418 5417 5417 5417 5417 5417 5417 5417 5416 5416 5416 5417 5417 5415 5414 5413 5413 5413 5412 5410 5410 5409 5409 5407 5404 5402 5401 5400 5398 5396 5395 5395 5395 5394 5394 5394 5395 5395 5395 5394 5392 5390 5387 5385 5384
5405 5406 5406 5408 5409 5410 5411 5411 5412 5413 5414 5414 5414 5415 5415 5415 5416 5416 5417 5417 5417 5418 5419 5419 5419 5419 5418 5418 5417 5417 5418 5418 5417 5416 5415 5414 5414 5414 5413 5412 5412 5411 5411 5411 5410 5410 5411 5411 5411 5410 5408 5408 5409 5410 5409 5407 5405 5405 5405 5405 5404 5402 5401 5401 5399 5397 5395 5394 5393 5391 5390 5388 5387 5385 5385 5385 5385 5385 5386 5386 5386 5385 5382 5379 5377 5375
5400 5401 5402 5403 5404 5405 5406 5406 5407 5408 5409 5409 5409 5409 5410 5410 5411 5411 5411 5412 5412 5412 5413 5413 5413 5413 5413 5412 5412 5411 5412 5412 5412 5411 5410 5409 5408 5408 5408 5407 5406 5405 5405 5405 5405 5404 5404 5405 5406 5405 5402 5400 5400 5401 5403 5401 5399 5397 5398 5398 5396 5395 5394 5393 5391 5389 5387 5386 5385 5385 5383 5381 5379 5378 5376 5376 5376 5376 5376 5377 5377 5377 5375 5371 5369 5367